Precipitable_Water
0.59 0.58 0.56 0.56 0.56 0.57 0.58 0.58 0.58 0.58 0.57 0.57 0.55 0.52 0.50 0.48 0.47 0.46 0.46 0.45 0.45 0.47 0.48 0.48 0.48 0.49 0.48 0.48 0.48 0.47 0.44 0.37 0.31 0.30 0.30 0.31 0.46 0.39 0.36 0.41 0.37 0.32 0.25 0.23 0.25 0.31 0.30 0.28 0.28 0.31 0.27 0.23 0.21 0.18 0.22 0.21 0.21 0.22 0.17 0.14 0.13 0.15 0.15 0.15 0.14 0.15 0.18 0.17 0.18 0.19 0.23 0.22 0.19 0.20 0.25 0.30 0.26 0.19 0.27 0.40 0.61 0.75 0.83 0.83 0.88 1.01 1.25 1.25
0.59 0.59 0.61 0.62 0.62 0.61 0.60 0.59 0.59 0.59 0.58 0.57 0.56 0.54 0.52 0.50 0.48 0.47 0.45 0.45 0.46 0.46 0.47 0.48 0.48 0.47 0.48 0.48 0.47 0.46 0.41 0.35 0.30 0.29 0.27 0.43 0.47 0.44 0.39 0.35 0.32 0.29 0.25 0.22 0.24 0.29 0.31 0.25 0.25 0.27 0.24 0.20 0.22 0.18 0.19 0.18 0.22 0.19 0.18 0.16 0.13 0.15 0.15 0.16 0.18 0.17 0.19 0.18 0.21 0.26 0.26 0.23 0.22 0.18 0.23 0.24 0.32 0.26 0.25 0.33 0.55 0.68 0.79 0.90 0.99 1.13 1.18 1.19
0.64 0.64 0.63 0.63 0.62 0.61 0.60 0.60 0.58 0.58 0.58 0.57 0.56 0.55 0.53 0.51 0.51 0.48 0.47 0.45 0.46 0.47 0.47 0.47 0.47 0.47 0.48 0.47 0.46 0.45 0.41 0.31 0.31 0.24 0.25 0.35 0.40 0.38 0.34 0.31 0.30 0.27 0.23 0.21 0.25 0.29 0.29 0.27 0.25 0.24 0.23 0.19 0.19 0.17 0.17 0.17 0.21 0.20 0.17 0.15 0.14 0.15 0.16 0.17 0.18 0.18 0.21 0.21 0.20 0.22 0.24 0.22 0.22 0.18 0.24 0.29 0.32 0.32 0.22 0.25 0.36 0.64 0.67 0.80 0.95 1.02 1.15 1.24
0.66 0.65 0.64 0.64 0.63 0.62 0.61 0.61 0.60 0.58 0.57 0.57 0.56 0.55 0.54 0.52 0.51 0.49 0.48 0.47 0.46 0.46 0.46 0.46 0.47 0.47 0.45 0.45 0.46 0.46 0.43 0.34 0.29 0.37 0.50 0.47 0.39 0.33 0.31 0.28 0.24 0.25 0.24 0.23 0.30 0.31 0.30 0.29 0.27 0.23 0.21 0.16 0.18 0.18 0.16 0.18 0.20 0.21 0.16 0.13 0.14 0.19 0.16 0.19 0.17 0.19 0.22 0.22 0.20 0.20 0.21 0.20 0.19 0.21 0.29 0.30 0.28 0.30 0.30 0.24 0.31 0.61 0.69 0.72 0.88 1.03 1.10 1.18
0.66 0.66 0.66 0.65 0.64 0.63 0.62 0.63 0.63 0.62 0.59 0.58 0.56 0.55 0.55 0.53 0.51 0.50 0.48 0.46 0.45 0.44 0.44 0.44 0.45 0.45 0.44 0.45 0.42 0.51 0.47 0.41 0.39 0.48 0.50 0.40 0.36 0.33 0.32 0.27 0.24 0.24 0.23 0.28 0.32 0.35 0.30 0.26 0.26 0.23 0.19 0.16 0.16 0.17 0.16 0.20 0.20 0.20 0.17 0.16 0.15 0.18 0.15 0.19 0.20 0.21 0.20 0.20 0.20 0.20 0.18 0.17 0.19 0.22 0.23 0.22 0.26 0.30 0.31 0.31 0.29 0.53 0.82 0.80 0.83 0.95 1.07 1.09
0.66 0.66 0.67 0.66 0.65 0.64 0.65 0.65 0.64 0.64 0.63 0.60 0.57 0.55 0.54 0.54 0.52 0.51 0.48 0.46 0.45 0.44 0.43 0.43 0.44 0.44 0.43 0.43 0.46 0.49 0.41 0.23 0.45 0.55 0.60 0.51 0.36 0.32 0.31 0.25 0.24 0.25 0.26 0.31 0.34 0.36 0.31 0.27 0.23 0.19 0.17 0.16 0.15 0.15 0.18 0.18 0.20 0.15 0.18 0.18 0.16 0.18 0.17 0.19 0.20 0.19 0.19 0.19 0.18 0.17 0.18 0.19 0.20 0.20 0.22 0.27 0.30 0.34 0.46 0.62 0.36 0.54 0.84 0.85 0.86 0.94 0.91 1.04
0.67 0.67 0.67 0.67 0.66 0.66 0.66 0.65 0.66 0.66 0.66 0.62 0.59 0.56 0.54 0.52 0.51 0.49 0.48 0.47 0.46 0.44 0.43 0.43 0.44 0.44 0.41 0.43 0.52 0.47 0.39 0.42 0.56 0.61 0.51 0.43 0.38 0.33 0.30 0.23 0.25 0.23 0.31 0.32 0.34 0.31 0.24 0.21 0.18 0.17 0.15 0.15 0.15 0.16 0.18 0.18 0.18 0.16 0.16 0.17 0.17 0.17 0.17 0.18 0.19 0.19 0.20 0.18 0.18 0.19 0.21 0.19 0.20 0.18 0.23 0.26 0.34 0.45 0.56 0.63 0.63 0.81 0.91 0.94 0.97 0.95 0.93 0.98
0.65 0.66 0.67 0.67 0.68 0.67 0.68 0.67 0.66 0.66 0.66 0.65 0.61 0.58 0.55 0.54 0.52 0.50 0.49 0.46 0.44 0.43 0.44 0.43 0.42 0.42 0.44 0.38 0.37 0.38 0.38 0.49 0.50 0.49 0.37 0.36 0.34 0.30 0.29 0.23 0.23 0.25 0.28 0.30 0.34 0.26 0.21 0.18 0.16 0.17 0.15 0.13 0.15 0.15 0.17 0.18 0.18 0.15 0.15 0.16 0.17 0.17 0.17 0.16 0.17 0.17 0.18 0.18 0.18 0.19 0.19 0.18 0.19 0.19 0.28 0.33 0.38 0.49 0.60 0.75 0.82 0.87 0.97 0.98 0.97 0.96 0.97 0.93
0.62 0.64 0.66 0.66 0.66 0.67 0.67 0.67 0.67 0.67 0.66 0.66 0.66 0.63 0.57 0.54 0.52 0.50 0.48 0.46 0.44 0.42 0.42 0.43 0.41 0.44 0.48 0.45 0.37 0.41 0.40 0.51 0.50 0.45 0.35 0.27 0.27 0.27 0.24 0.21 0.25 0.26 0.29 0.34 0.37 0.28 0.21 0.18 0.18 0.17 0.14 0.15 0.16 0.14 0.15 0.16 0.15 0.15 0.16 0.16 0.15 0.15 0.18 0.19 0.17 0.17 0.16 0.17 0.19 0.19 0.19 0.19 0.20 0.23 0.29 0.38 0.45 0.61 0.69 0.74 0.75 0.78 0.82 0.91 0.90 0.98 1.02 1.01
0.56 0.60 0.63 0.65 0.65 0.65 0.66 0.66 0.67 0.67 0.66 0.66 0.67 0.66 0.62 0.56 0.52 0.50 0.49 0.46 0.44 0.41 0.40 0.40 0.46 0.47 0.44 0.42 0.44 0.43 0.40 0.50 0.48 0.37 0.29 0.26 0.23 0.24 0.23 0.27 0.25 0.30 0.31 0.33 0.31 0.25 0.21 0.21 0.17 0.19 0.17 0.16 0.17 0.17 0.16 0.16 0.16 0.18 0.18 0.17 0.15 0.14 0.15 0.18 0.16 0.16 0.17 0.16 0.19 0.19 0.18 0.19 0.23 0.23 0.22 0.39 0.57 0.60 0.59 0.69 0.72 0.72 0.80 0.81 0.85 0.93 0.97 0.96
0.51 0.53 0.58 0.61 0.63 0.64 0.65 0.65 0.66 0.66 0.66 0.65 0.66 0.65 0.62 0.56 0.53 0.51 0.49 0.47 0.43 0.42 0.40 0.42 0.50 0.48 0.42 0.49 0.40 0.40 0.39 0.45 0.42 0.32 0.29 0.24 0.22 0.22 0.25 0.31 0.29 0.32 0.33 0.29 0.28 0.24 0.23 0.20 0.23 0.21 0.20 0.16 0.19 0.19 0.16 0.16 0.17 0.15 0.17 0.18 0.15 0.14 0.15 0.16 0.17 0.17 0.17 0.17 0.19 0.19 0.19 0.22 0.24 0.24 0.24 0.52 0.59 0.56 0.69 0.63 0.73 0.74 0.77 0.84 0.90 0.92 0.94 0.90
0.47 0.48 0.51 0.54 0.59 0.61 0.63 0.64 0.64 0.65 0.66 0.65 0.65 0.64 0.62 0.60 0.57 0.51 0.48 0.48 0.46 0.43 0.41 0.46 0.48 0.50 0.47 0.43 0.41 0.45 0.36 0.36 0.35 0.33 0.29 0.26 0.23 0.28 0.34 0.38 0.32 0.33 0.33 0.30 0.24 0.25 0.23 0.24 0.30 0.23 0.18 0.24 0.16 0.17 0.15 0.15 0.16 0.17 0.19 0.16 0.17 0.17 0.15 0.15 0.16 0.18 0.19 0.18 0.21 0.19 0.19 0.21 0.23 0.22 0.27 0.42 0.52 0.48 0.64 0.62 0.67 0.70 0.78 0.81 0.94 1.00 1.00 0.93
0.45 0.46 0.46 0.49 0.52 0.55 0.58 0.61 0.61 0.62 0.64 0.64 0.64 0.64 0.64 0.63 0.60 0.58 0.51 0.46 0.46 0.45 0.45 0.48 0.47 0.49 0.47 0.35 0.45 0.43 0.35 0.31 0.39 0.34 0.31 0.31 0.31 0.37 0.40 0.42 0.34 0.34 0.36 0.28 0.22 0.23 0.25 0.29 0.27 0.22 0.25 0.24 0.23 0.16 0.22 0.19 0.18 0.17 0.17 0.15 0.15 0.15 0.15 0.16 0.16 0.17 0.17 0.18 0.22 0.21 0.16 0.19 0.20 0.25 0.34 0.47 0.47 0.43 0.62 0.63 0.70 0.72 0.69 0.75 0.77 0.88 0.99 1.02
0.45 0.44 0.45 0.44 0.47 0.50 0.53 0.55 0.58 0.58 0.60 0.63 0.64 0.64 0.64 0.64 0.62 0.61 0.59 0.49 0.47 0.46 0.48 0.50 0.50 0.50 0.50 0.39 0.34 0.35 0.33 0.38 0.30 0.29 0.31 0.34 0.34 0.34 0.33 0.33 0.35 0.38 0.41 0.35 0.30 0.28 0.25 0.26 0.24 0.24 0.27 0.25 0.25 0.29 0.23 0.20 0.19 0.15 0.15 0.15 0.12 0.13 0.14 0.18 0.18 0.18 0.16 0.19 0.23 0.23 0.15 0.19 0.23 0.26 0.38 0.43 0.45 0.41 0.47 0.62 0.61 0.66 0.71 0.79 0.80 0.91 1.04 0.92
0.44 0.44 0.43 0.43 0.43 0.46 0.48 0.51 0.53 0.55 0.56 0.57 0.61 0.62 0.61 0.62 0.63 0.61 0.59 0.55 0.46 0.46 0.51 0.54 0.51 0.50 0.41 0.48 0.39 0.36 0.29 0.38 0.24 0.27 0.29 0.30 0.32 0.28 0.24 0.28 0.31 0.34 0.34 0.31 0.29 0.27 0.26 0.25 0.23 0.21 0.21 0.23 0.24 0.20 0.20 0.18 0.19 0.16 0.13 0.12 0.13 0.11 0.15 0.19 0.20 0.19 0.15 0.19 0.24 0.22 0.15 0.18 0.21 0.25 0.31 0.34 0.38 0.41 0.42 0.55 0.66 0.77 0.84 0.85 0.87 0.99 0.99 0.92
0.44 0.43 0.43 0.43 0.43 0.43 0.44 0.46 0.49 0.52 0.53 0.53 0.56 0.56 0.56 0.61 0.62 0.62 0.58 0.56 0.54 0.48 0.51 0.48 0.57 0.48 0.46 0.47 0.43 0.41 0.25 0.24 0.26 0.29 0.27 0.31 0.29 0.23 0.24 0.25 0.25 0.27 0.25 0.24 0.30 0.29 0.26 0.25 0.20 0.21 0.24 0.25 0.18 0.17 0.17 0.16 0.18 0.17 0.13 0.15 0.14 0.13 0.14 0.16 0.20 0.21 0.21 0.21 0.23 0.22 0.16 0.16 0.19 0.24 0.29 0.32 0.33 0.35 0.38 0.48 0.71 0.73 0.71 0.76 0.87 0.91 0.95 0.94
0.43 0.43 0.43 0.43 0.42 0.41 0.42 0.43 0.45 0.48 0.51 0.51 0.53 0.52 0.54 0.62 0.62 0.61 0.58 0.56 0.53 0.48 0.46 0.44 0.54 0.62 0.39 0.46 0.48 0.30 0.23 0.35 0.36 0.27 0.28 0.33 0.30 0.28 0.22 0.25 0.24 0.26 0.25 0.28 0.27 0.25 0.26 0.20 0.23 0.23 0.24 0.25 0.22 0.18 0.16 0.17 0.18 0.19 0.17 0.14 0.18 0.14 0.16 0.17 0.21 0.22 0.23 0.20 0.21 0.23 0.18 0.18 0.24 0.25 0.29 0.29 0.28 0.29 0.32 0.37 0.63 0.57 0.66 0.72 0.73 0.82 0.88 0.92
0.43 0.42 0.42 0.42 0.42 0.42 0.41 0.43 0.44 0.45 0.48 0.50 0.50 0.49 0.53 0.60 0.61 0.59 0.54 0.54 0.55 0.46 0.47 0.53 0.49 0.42 0.36 0.49 0.31 0.30 0.31 0.40 0.32 0.30 0.27 0.32 0.34 0.30 0.25 0.23 0.25 0.26 0.24 0.24 0.25 0.23 0.23 0.21 0.21 0.21 0.19 0.17 0.19 0.18 0.15 0.16 0.21 0.21 0.20 0.15 0.16 0.16 0.18 0.17 0.19 0.23 0.25 0.23 0.20 0.21 0.19 0.20 0.24 0.25 0.26 0.28 0.29 0.29 0.29 0.31 0.58 0.56 0.63 0.68 0.69 0.72 0.76 0.78
0.41 0.42 0.41 0.42 0.43 0.44 0.44 0.43 0.44 0.45 0.47 0.50 0.51 0.62 0.69 0.68 0.67 0.58 0.49 0.51 0.36 0.28 0.24 0.29 0.33 0.28 0.25 0.41 0.44 0.37 0.36 0.43 0.32 0.33 0.27 0.29 0.31 0.31 0.28 0.29 0.28 0.24 0.24 0.23 0.24 0.24 0.24 0.23 0.23 0.21 0.19 0.18 0.16 0.21 0.21 0.25 0.26 0.23 0.24 0.19 0.17 0.18 0.18 0.18 0.19 0.24 0.25 0.23 0.22 0.21 0.20 0.18 0.20 0.23 0.25 0.25 0.26 0.28 0.29 0.32 0.34 0.67 0.62 0.64 0.66 0.69 0.72 0.75
0.40 0.40 0.41 0.43 0.45 0.45 0.45 0.46 0.46 0.47 0.52 0.48 0.58 0.67 0.75 0.68 0.60 0.58 0.55 0.51 0.33 0.27 0.35 0.44 0.36 0.40 0.37 0.38 0.40 0.45 0.43 0.38 0.30 0.31 0.31 0.31 0.28 0.28 0.27 0.28 0.27 0.26 0.24 0.24 0.25 0.25 0.26 0.21 0.21 0.21 0.23 0.26 0.24 0.22 0.30 0.30 0.28 0.28 0.28 0.23 0.21 0.21 0.21 0.21 0.23 0.25 0.27 0.25 0.24 0.22 0.21 0.21 0.20 0.23 0.25 0.27 0.29 0.28 0.29 0.29 0.32 0.37 0.64 0.75 0.73 0.71 0.73 0.76
0.41 0.40 0.40 0.42 0.44 0.47 0.48 0.49 0.52 0.55 0.55 0.54 0.56 0.59 0.56 0.46 0.38 0.41 0.48 0.50 0.43 0.35 0.39 0.44 0.38 0.36 0.39 0.41 0.44 0.39 0.32 0.30 0.31 0.30 0.32 0.35 0.30 0.26 0.25 0.24 0.24 0.21 0.23 0.26 0.28 0.31 0.26 0.22 0.21 0.25 0.30 0.33 0.34 0.31 0.28 0.26 0.29 0.27 0.25 0.23 0.23 0.23 0.21 0.22 0.23 0.26 0.28 0.24 0.25 0.24 0.22 0.21 0.21 0.24 0.26 0.27 0.29 0.28 0.28 0.30 0.31 0.35 0.37 0.39 0.41 0.64 0.65 0.74
0.41 0.40 0.39 0.41 0.43 0.47 0.50 0.53 0.56 0.57 0.59 0.57 0.55 0.55 0.65 0.47 0.48 0.54 0.51 0.33 0.38 0.40 0.38 0.42 0.44 0.36 0.39 0.46 0.46 0.41 0.35 0.31 0.26 0.29 0.34 0.32 0.27 0.22 0.25 0.21 0.22 0.21 0.24 0.24 0.27 0.27 0.22 0.15 0.22 0.27 0.33 0.32 0.30 0.30 0.28 0.23 0.23 0.25 0.22 0.19 0.20 0.23 0.22 0.25 0.28 0.29 0.30 0.26 0.24 0.25 0.22 0.23 0.24 0.25 0.26 0.26 0.28 0.30 0.28 0.31 0.32 0.32 0.34 0.38 0.40 0.62 0.62 0.69
0.41 0.39 0.40 0.40 0.44 0.45 0.49 0.53 0.56 0.56 0.56 0.52 0.50 0.53 0.59 0.54 0.54 0.54 0.50 0.39 0.36 0.48 0.37 0.34 0.36 0.35 0.36 0.45 0.43 0.39 0.31 0.28 0.28 0.30 0.32 0.29 0.27 0.24 0.26 0.20 0.20 0.22 0.25 0.25 0.22 0.22 0.17 0.21 0.24 0.25 0.30 0.29 0.27 0.26 0.24 0.21 0.20 0.21 0.20 0.14 0.17 0.21 0.19 0.21 0.23 0.28 0.28 0.24 0.21 0.23 0.22 0.24 0.27 0.23 0.24 0.30 0.29 0.31 0.30 0.33 0.31 0.31 0.30 0.34 0.36 0.38 0.61 0.58
0.43 0.41 0.38 0.38 0.40 0.44 0.47 0.50 0.51 0.49 0.46 0.46 0.45 0.50 0.61 0.54 0.54 0.57 0.45 0.33 0.37 0.44 0.39 0.33 0.32 0.31 0.32 0.35 0.40 0.33 0.28 0.35 0.35 0.33 0.38 0.30 0.23 0.28 0.24 0.24 0.21 0.19 0.21 0.25 0.25 0.21 0.21 0.27 0.32 0.31 0.28 0.26 0.21 0.20 0.19 0.17 0.15 0.16 0.16 0.19 0.18 0.18 0.19 0.20 0.23 0.28 0.30 0.32 0.30 0.26 0.24 0.22 0.25 0.24 0.25 0.31 0.32 0.31 0.33 0.35 0.34 0.33 0.35 0.37 0.38 0.38 0.60 0.52
0.40 0.43 0.40 0.38 0.38 0.43 0.43 0.47 0.39 0.36 0.41 0.45 0.45 0.59 0.60 0.57 0.63 0.64 0.45 0.34 0.38 0.37 0.51 0.39 0.32 0.31 0.33 0.43 0.43 0.30 0.31 0.38 0.38 0.37 0.39 0.36 0.26 0.27 0.23 0.27 0.23 0.23 0.21 0.22 0.24 0.22 0.19 0.30 0.31 0.28 0.27 0.26 0.21 0.18 0.20 0.20 0.18 0.18 0.20 0.18 0.20 0.22 0.23 0.22 0.30 0.25 0.27 0.27 0.32 0.31 0.22 0.19 0.25 0.25 0.24 0.28 0.27 0.28 0.36 0.34 0.31 0.34 0.35 0.36 0.37 0.38 0.42 0.60
0.39 0.40 0.43 0.40 0.37 0.40 0.47 0.34 0.47 0.50 0.48 0.50 0.58 0.62 0.60 0.57 0.69 0.64 0.48 0.36 0.30 0.43 0.45 0.30 0.34 0.29 0.41 0.38 0.39 0.31 0.35 0.33 0.36 0.36 0.39 0.38 0.35 0.31 0.28 0.24 0.23 0.21 0.23 0.23 0.22 0.20 0.23 0.29 0.27 0.25 0.24 0.24 0.22 0.18 0.21 0.26 0.20 0.18 0.23 0.24 0.23 0.22 0.23 0.24 0.24 0.26 0.24 0.23 0.31 0.34 0.22 0.18 0.22 0.22 0.25 0.26 0.26 0.30 0.36 0.33 0.34 0.37 0.34 0.34 0.37 0.41 0.41 0.53
0.39 0.39 0.43 0.43 0.39 0.40 0.27 0.38 0.51 0.41 0.38 0.50 0.56 0.61 0.53 0.57 0.77 0.61 0.43 0.33 0.27 0.38 0.31 0.39 0.28 0.39 0.41 0.46 0.38 0.32 0.23 0.29 0.37 0.39 0.38 0.38 0.31 0.33 0.26 0.28 0.25 0.23 0.24 0.28 0.21 0.20 0.23 0.22 0.26 0.25 0.23 0.22 0.21 0.20 0.20 0.21 0.23 0.19 0.26 0.25 0.27 0.26 0.24 0.24 0.25 0.26 0.25 0.29 0.30 0.30 0.29 0.22 0.22 0.23 0.27 0.26 0.25 0.28 0.33 0.37 0.37 0.36 0.36 0.35 0.36 0.39 0.41 0.44
0.40 0.39 0.41 0.45 0.41 0.38 0.29 0.34 0.32 0.31 0.43 0.58 0.63 0.62 0.58 0.70 0.67 0.70 0.39 0.22 0.26 0.45 0.32 0.34 0.32 0.48 0.40 0.43 0.41 0.26 0.35 0.39 0.32 0.35 0.40 0.41 0.33 0.32 0.24 0.27 0.24 0.21 0.23 0.23 0.17 0.27 0.24 0.24 0.25 0.25 0.24 0.23 0.19 0.21 0.23 0.24 0.22 0.24 0.32 0.30 0.25 0.27 0.27 0.24 0.22 0.23 0.25 0.24 0.21 0.25 0.26 0.19 0.18 0.22 0.26 0.26 0.23 0.27 0.32 0.36 0.37 0.36 0.35 0.37 0.36 0.39 0.40 0.42
0.40 0.40 0.41 0.47 0.45 0.42 0.40 0.31 0.28 0.27 0.44 0.47 0.55 0.54 0.62 0.65 0.61 0.49 0.39 0.22 0.35 0.32 0.46 0.34 0.46 0.41 0.38 0.40 0.36 0.32 0.33 0.37 0.32 0.39 0.42 0.39 0.34 0.34 0.23 0.26 0.25 0.26 0.26 0.24 0.21 0.23 0.26 0.27 0.25 0.28 0.25 0.22 0.21 0.22 0.24 0.23 0.21 0.28 0.28 0.29 0.29 0.30 0.28 0.27 0.24 0.22 0.23 0.23 0.20 0.22 0.25 0.21 0.21 0.26 0.26 0.26 0.23 0.25 0.31 0.36 0.36 0.37 0.37 0.36 0.37 0.38 0.39 0.42
0.37 0.38 0.39 0.46 0.45 0.40 0.41 0.45 0.37 0.34 0.41 0.42 0.49 0.54 0.52 0.52 0.48 0.31 0.26 0.19 0.39 0.30 0.36 0.39 0.37 0.34 0.36 0.32 0.30 0.33 0.33 0.32 0.34 0.32 0.35 0.32 0.33 0.30 0.30 0.33 0.28 0.26 0.24 0.24 0.21 0.22 0.31 0.33 0.32 0.27 0.24 0.25 0.26 0.28 0.28 0.27 0.28 0.33 0.33 0.31 0.29 0.26 0.26 0.27 0.26 0.26 0.25 0.21 0.21 0.24 0.27 0.24 0.20 0.25 0.26 0.25 0.23 0.29 0.33 0.35 0.37 0.39 0.40 0.44 0.46 0.44 0.44 0.45
0.37 0.39 0.39 0.46 0.34 0.48 0.48 0.51 0.56 0.48 0.44 0.50 0.56 0.43 0.39 0.47 0.34 0.28 0.20 0.28 0.34 0.33 0.37 0.35 0.34 0.37 0.32 0.27 0.25 0.30 0.31 0.35 0.32 0.32 0.30 0.30 0.28 0.26 0.27 0.25 0.28 0.25 0.24 0.25 0.22 0.21 0.21 0.26 0.26 0.25 0.22 0.24 0.24 0.24 0.25 0.27 0.30 0.28 0.25 0.26 0.26 0.24 0.25 0.24 0.25 0.27 0.21 0.19 0.23 0.26 0.26 0.25 0.19 0.22 0.29 0.30 0.29 0.32 0.34 0.36 0.36 0.34 0.39 0.45 0.48 0.48 0.48 0.48
0.33 0.36 0.40 0.43 0.42 0.50 0.33 0.53 0.64 0.66 0.66 0.58 0.41 0.33 0.37 0.24 0.33 0.23 0.23 0.48 0.29 0.32 0.29 0.29 0.30 0.30 0.30 0.29 0.27 0.29 0.27 0.29 0.30 0.31 0.28 0.26 0.27 0.25 0.23 0.22 0.24 0.18 0.16 0.19 0.20 0.24 0.22 0.23 0.27 0.25 0.24 0.18 0.17 0.18 0.19 0.21 0.23 0.23 0.21 0.20 0.19 0.20 0.21 0.20 0.24 0.20 0.20 0.18 0.26 0.31 0.28 0.24 0.24 0.27 0.29 0.30 0.32 0.33 0.36 0.34 0.34 0.37 0.41 0.44 0.45 0.45 0.48 0.48
0.32 0.33 0.36 0.39 0.46 0.42 0.43 0.51 0.62 0.65 0.57 0.49 0.35 0.38 0.32 0.24 0.18 0.25 0.24 0.35 0.31 0.31 0.30 0.33 0.28 0.28 0.31 0.28 0.26 0.29 0.30 0.27 0.31 0.30 0.29 0.28 0.25 0.28 0.27 0.23 0.26 0.24 0.20 0.24 0.23 0.24 0.25 0.27 0.27 0.26 0.26 0.26 0.20 0.16 0.15 0.14 0.18 0.20 0.17 0.18 0.17 0.17 0.17 0.16 0.20 0.23 0.24 0.29 0.31 0.29 0.30 0.24 0.28 0.28 0.34 0.32 0.31 0.34 0.36 0.40 0.41 0.41 0.43 0.43 0.42 0.43 0.44 0.45
0.28 0.31 0.30 0.37 0.39 0.42 0.47 0.59 0.62 0.63 0.54 0.43 0.34 0.33 0.27 0.23 0.19 0.29 0.28 0.33 0.34 0.36 0.34 0.30 0.31 0.30 0.29 0.25 0.26 0.28 0.26 0.29 0.28 0.28 0.28 0.27 0.26 0.25 0.28 0.28 0.27 0.26 0.25 0.28 0.25 0.26 0.22 0.24 0.26 0.26 0.24 0.26 0.22 0.17 0.18 0.19 0.22 0.23 0.24 0.22 0.22 0.21 0.20 0.18 0.19 0.18 0.21 0.23 0.25 0.29 0.25 0.23 0.23 0.29 0.32 0.34 0.38 0.39 0.39 0.39 0.41 0.42 0.44 0.42 0.40 0.39 0.47 0.49
0.25 0.26 0.30 0.38 0.42 0.43 0.46 0.52 0.57 0.56 0.47 0.40 0.32 0.26 0.20 0.18 0.21 0.22 0.26 0.26 0.31 0.36 0.33 0.33 0.29 0.28 0.27 0.26 0.24 0.28 0.28 0.27 0.30 0.28 0.25 0.23 0.24 0.24 0.24 0.26 0.26 0.25 0.25 0.20 0.23 0.22 0.21 0.22 0.25 0.28 0.27 0.27 0.22 0.20 0.20 0.19 0.19 0.19 0.24 0.26 0.25 0.24 0.28 0.21 0.24 0.24 0.23 0.23 0.23 0.25 0.23 0.26 0.31 0.36 0.35 0.37 0.38 0.38 0.37 0.36 0.39 0.39 0.40 0.39 0.37 0.38 0.44 0.48
0.22 0.34 0.43 0.35 0.37 0.37 0.42 0.49 0.56 0.57 0.37 0.34 0.28 0.22 0.19 0.22 0.21 0.22 0.22 0.23 0.23 0.29 0.32 0.31 0.30 0.26 0.25 0.23 0.25 0.25 0.26 0.24 0.27 0.26 0.26 0.24 0.24 0.22 0.24 0.24 0.26 0.24 0.22 0.17 0.20 0.18 0.18 0.16 0.22 0.24 0.27 0.27 0.26 0.23 0.22 0.21 0.14 0.23 0.21 0.19 0.24 0.30 0.28 0.25 0.25 0.26 0.25 0.22 0.19 0.25 0.24 0.27 0.31 0.27 0.33 0.38 0.36 0.34 0.32 0.32 0.33 0.32 0.35 0.37 0.39 0.40 0.45 0.49
0.18 0.35 0.35 0.40 0.37 0.38 0.53 0.53 0.57 0.53 0.41 0.31 0.28 0.21 0.24 0.25 0.27 0.28 0.30 0.25 0.28 0.31 0.31 0.26 0.27 0.25 0.23 0.23 0.24 0.24 0.24 0.28 0.27 0.26 0.23 0.23 0.19 0.20 0.21 0.25 0.31 0.29 0.23 0.21 0.23 0.24 0.21 0.20 0.20 0.22 0.23 0.26 0.23 0.21 0.22 0.23 0.21 0.18 0.16 0.22 0.27 0.30 0.30 0.27 0.22 0.23 0.20 0.18 0.18 0.21 0.19 0.18 0.19 0.18 0.31 0.31 0.32 0.32 0.30 0.31 0.32 0.34 0.40 0.40 0.42 0.43 0.46 0.44
0.19 0.20 0.26 0.24 0.37 0.62 0.67 0.62 0.58 0.56 0.41 0.31 0.22 0.23 0.31 0.27 0.34 0.29 0.28 0.29 0.32 0.32 0.29 0.27 0.29 0.30 0.24 0.24 0.25 0.26 0.28 0.24 0.25 0.24 0.21 0.22 0.20 0.22 0.21 0.26 0.32 0.30 0.27 0.28 0.21 0.26 0.24 0.18 0.22 0.24 0.22 0.25 0.25 0.23 0.20 0.20 0.19 0.17 0.17 0.23 0.18 0.19 0.18 0.22 0.20 0.16 0.15 0.15 0.17 0.20 0.20 0.20 0.21 0.21 0.25 0.29 0.29 0.30 0.30 0.32 0.33 0.39 0.43 0.47 0.48 0.46 0.45 0.43
0.21 0.19 0.14 0.20 0.38 0.62 0.63 0.58 0.53 0.47 0.37 0.26 0.22 0.21 0.23 0.22 0.26 0.32 0.29 0.27 0.28 0.27 0.23 0.22 0.24 0.30 0.29 0.27 0.27 0.29 0.29 0.25 0.26 0.23 0.19 0.19 0.16 0.27 0.25 0.28 0.30 0.32 0.28 0.24 0.19 0.19 0.21 0.16 0.19 0.24 0.22 0.21 0.20 0.23 0.18 0.20 0.21 0.20 0.19 0.15 0.18 0.17 0.17 0.19 0.23 0.22 0.20 0.17 0.17 0.17 0.18 0.17 0.22 0.24 0.26 0.29 0.31 0.32 0.32 0.32 0.31 0.37 0.40 0.46 0.51 0.49 0.45 0.42
0.23 0.26 0.22 0.42 0.45 0.54 0.53 0.47 0.46 0.39 0.31 0.23 0.23 0.21 0.26 0.23 0.25 0.27 0.23 0.27 0.28 0.22 0.19 0.18 0.22 0.21 0.25 0.27 0.28 0.27 0.31 0.30 0.26 0.25 0.20 0.20 0.20 0.36 0.28 0.31 0.30 0.33 0.31 0.27 0.21 0.23 0.19 0.24 0.17 0.22 0.22 0.19 0.16 0.20 0.20 0.21 0.18 0.19 0.17 0.17 0.18 0.18 0.20 0.18 0.20 0.20 0.20 0.19 0.18 0.17 0.16 0.21 0.25 0.31 0.31 0.31 0.31 0.33 0.34 0.33 0.32 0.34 0.37 0.44 0.50 0.49 0.46 0.42
0.32 0.27 0.32 0.51 0.54 0.53 0.57 0.44 0.30 0.27 0.24 0.26 0.25 0.24 0.26 0.24 0.26 0.29 0.32 0.32 0.28 0.24 0.20 0.21 0.22 0.21 0.23 0.23 0.26 0.29 0.29 0.29 0.29 0.27 0.25 0.23 0.23 0.25 0.29 0.31 0.34 0.32 0.33 0.27 0.21 0.21 0.18 0.19 0.15 0.16 0.14 0.16 0.18 0.23 0.22 0.22 0.25 0.23 0.22 0.22 0.26 0.26 0.25 0.20 0.17 0.21 0.18 0.16 0.15 0.15 0.14 0.20 0.28 0.29 0.30 0.32 0.37 0.35 0.36 0.37 0.35 0.36 0.39 0.45 0.51 0.50 0.43 0.42
0.22 0.16 0.26 0.46 0.54 0.52 0.46 0.30 0.26 0.27 0.26 0.23 0.23 0.25 0.21 0.27 0.26 0.32 0.33 0.34 0.31 0.22 0.20 0.19 0.21 0.23 0.25 0.27 0.28 0.29 0.28 0.27 0.28 0.28 0.28 0.25 0.26 0.24 0.31 0.34 0.32 0.32 0.29 0.25 0.22 0.30 0.23 0.23 0.18 0.16 0.16 0.16 0.17 0.20 0.21 0.21 0.20 0.23 0.24 0.22 0.23 0.24 0.24 0.21 0.17 0.21 0.26 0.26 0.26 0.25 0.20 0.21 0.34 0.35 0.34 0.33 0.35 0.33 0.38 0.36 0.36 0.39 0.44 0.49 0.52 0.49 0.44 0.44
0.24 0.21 0.52 0.56 0.61 0.52 0.36 0.25 0.26 0.26 0.23 0.24 0.27 0.26 0.27 0.27 0.29 0.30 0.30 0.29 0.26 0.25 0.18 0.19 0.20 0.19 0.21 0.24 0.29 0.28 0.29 0.27 0.28 0.26 0.27 0.25 0.24 0.29 0.31 0.32 0.31 0.28 0.25 0.22 0.18 0.24 0.23 0.18 0.16 0.16 0.17 0.17 0.17 0.16 0.15 0.18 0.18 0.17 0.17 0.16 0.15 0.16 0.20 0.20 0.20 0.22 0.20 0.20 0.18 0.19 0.18 0.26 0.33 0.41 0.36 0.35 0.33 0.32 0.35 0.38 0.39 0.41 0.49 0.50 0.51 0.51 0.46 0.45
0.39 0.44 0.47 0.58 0.58 0.50 0.34 0.22 0.19 0.21 0.23 0.24 0.25 0.25 0.28 0.27 0.30 0.31 0.29 0.28 0.27 0.27 0.23 0.20 0.23 0.22 0.21 0.25 0.24 0.23 0.27 0.23 0.27 0.27 0.27 0.27 0.27 0.31 0.30 0.29 0.26 0.22 0.21 0.24 0.16 0.28 0.14 0.18 0.13 0.10 0.10 0.10 0.12 0.14 0.12 0.13 0.14 0.14 0.16 0.19 0.21 0.21 0.20 0.20 0.20 0.21 0.17 0.17 0.18 0.17 0.13 0.18 0.32 0.35 0.35 0.36 0.36 0.34 0.36 0.38 0.41 0.44 0.48 0.50 0.50 0.53 0.53 0.50
0.34 0.39 0.38 0.45 0.51 0.45 0.27 0.26 0.20 0.20 0.22 0.23 0.24 0.23 0.24 0.26 0.30 0.31 0.31 0.30 0.30 0.26 0.29 0.30 0.29 0.32 0.28 0.26 0.25 0.26 0.27 0.26 0.23 0.26 0.26 0.26 0.28 0.31 0.32 0.29 0.27 0.24 0.31 0.31 0.28 0.27 0.20 0.21 0.19 0.14 0.12 0.10 0.10 0.10 0.12 0.16 0.17 0.21 0.21 0.21 0.23 0.23 0.23 0.21 0.17 0.19 0.16 0.19 0.22 0.19 0.19 0.27 0.34 0.35 0.33 0.34 0.35 0.34 0.36 0.39 0.40 0.42 0.47 0.49 0.51 0.54 0.55 0.54
0.43 0.31 0.37 0.29 0.40 0.35 0.28 0.26 0.25 0.24 0.24 0.25 0.27 0.29 0.29 0.27 0.31 0.32 0.30 0.29 0.30 0.31 0.32 0.32 0.31 0.30 0.29 0.28 0.25 0.23 0.23 0.25 0.21 0.23 0.24 0.23 0.25 0.27 0.28 0.26 0.25 0.29 0.30 0.29 0.26 0.24 0.19 0.19 0.17 0.16 0.14 0.13 0.14 0.16 0.21 0.23 0.22 0.18 0.20 0.22 0.23 0.24 0.25 0.26 0.24 0.20 0.18 0.23 0.22 0.21 0.22 0.23 0.26 0.34 0.39 0.41 0.38 0.35 0.34 0.36 0.36 0.37 0.40 0.47 0.53 0.56 0.56 0.55
0.45 0.34 0.39 0.38 0.41 0.35 0.32 0.28 0.20 0.20 0.19 0.25 0.23 0.27 0.27 0.30 0.31 0.32 0.37 0.29 0.28 0.25 0.26 0.25 0.24 0.23 0.24 0.23 0.22 0.23 0.24 0.22 0.22 0.20 0.20 0.20 0.22 0.23 0.29 0.27 0.25 0.27 0.26 0.24 0.22 0.18 0.16 0.13 0.14 0.15 0.15 0.15 0.16 0.16 0.17 0.18 0.17 0.18 0.18 0.18 0.20 0.20 0.20 0.21 0.21 0.19 0.24 0.21 0.17 0.22 0.26 0.23 0.25 0.28 0.30 0.33 0.38 0.39 0.40 0.40 0.43 0.40 0.42 0.48 0.50 0.56 0.56 0.55
0.36 0.44 0.46 0.48 0.37 0.36 0.34 0.29 0.37 0.30 0.30 0.28 0.24 0.25 0.26 0.29 0.31 0.29 0.31 0.33 0.32 0.31 0.26 0.26 0.23 0.22 0.21 0.22 0.23 0.19 0.20 0.20 0.21 0.21 0.22 0.21 0.19 0.25 0.21 0.28 0.25 0.30 0.26 0.21 0.20 0.16 0.14 0.13 0.15 0.15 0.14 0.14 0.15 0.16 0.17 0.17 0.16 0.16 0.17 0.18 0.17 0.19 0.19 0.18 0.18 0.20 0.22 0.19 0.16 0.20 0.24 0.22 0.24 0.29 0.32 0.34 0.35 0.34 0.35 0.38 0.40 0.42 0.42 0.48 0.51 0.55 0.52 0.53
0.40 0.45 0.46 0.47 0.39 0.40 0.39 0.41 0.39 0.36 0.33 0.34 0.34 0.32 0.27 0.28 0.29 0.32 0.31 0.35 0.36 0.32 0.29 0.23 0.23 0.25 0.23 0.22 0.20 0.20 0.22 0.20 0.19 0.23 0.23 0.25 0.24 0.23 0.21 0.24 0.28 0.30 0.28 0.24 0.24 0.27 0.22 0.17 0.18 0.19 0.18 0.18 0.18 0.18 0.20 0.19 0.19 0.18 0.17 0.17 0.17 0.18 0.19 0.18 0.20 0.21 0.18 0.18 0.21 0.22 0.23 0.23 0.26 0.29 0.31 0.33 0.36 0.38 0.39 0.38 0.38 0.41 0.42 0.44 0.48 0.53 0.51 0.48
0.24 0.29 0.30 0.36 0.43 0.40 0.36 0.35 0.36 0.34 0.29 0.31 0.26 0.28 0.31 0.31 0.28 0.30 0.32 0.32 0.30 0.31 0.37 0.29 0.27 0.25 0.24 0.21 0.22 0.22 0.32 0.30 0.30 0.26 0.34 0.26 0.28 0.28 0.27 0.28 0.28 0.30 0.29 0.25 0.28 0.30 0.24 0.23 0.26 0.26 0.22 0.20 0.20 0.19 0.18 0.17 0.15 0.13 0.13 0.15 0.17 0.18 0.19 0.19 0.20 0.21 0.23 0.23 0.23 0.24 0.23 0.22 0.27 0.31 0.31 0.34 0.35 0.36 0.37 0.37 0.37 0.38 0.38 0.39 0.42 0.47 0.49 0.49
0.31 0.39 0.37 0.35 0.31 0.34 0.33 0.31 0.30 0.30 0.27 0.30 0.28 0.32 0.30 0.29 0.26 0.30 0.32 0.33 0.30 0.30 0.34 0.33 0.34 0.33 0.31 0.27 0.24 0.29 0.34 0.35 0.32 0.34 0.33 0.32 0.26 0.32 0.26 0.28 0.30 0.27 0.28 0.26 0.28 0.31 0.27 0.25 0.29 0.26 0.21 0.19 0.22 0.21 0.20 0.20 0.18 0.17 0.16 0.18 0.19 0.19 0.18 0.19 0.18 0.20 0.21 0.21 0.23 0.24 0.22 0.21 0.26 0.33 0.36 0.34 0.36 0.38 0.38 0.37 0.38 0.39 0.37 0.37 0.39 0.41 0.44 0.47
0.28 0.33 0.41 0.39 0.31 0.34 0.29 0.33 0.34 0.31 0.27 0.33 0.35 0.34 0.30 0.31 0.31 0.31 0.29 0.32 0.32 0.30 0.32 0.32 0.32 0.31 0.31 0.30 0.32 0.33 0.34 0.33 0.32 0.32 0.32 0.31 0.31 0.31 0.30 0.31 0.29 0.28 0.27 0.27 0.30 0.26 0.27 0.26 0.25 0.25 0.21 0.20 0.23 0.23 0.21 0.21 0.20 0.16 0.16 0.19 0.21 0.21 0.20 0.22 0.25 0.25 0.24 0.24 0.24 0.22 0.22 0.27 0.34 0.37 0.33 0.35 0.39 0.39 0.39 0.43 0.42 0.44 0.45 0.43 0.44 0.37 0.39 0.44
Wind_Speed
15 15 15 16 16 16 16 16 16 16 16 16 16 16 16 16 16 16 16 16 16 17 17 17 17 17 17 17 18 18 18 19 20 20 21 21 19 18 17 17 17 17 17 16 17 17 17 17 17 16 16 15 15 15 16 17 17 16 16 17 17 17 17 16 16 15 13 14 10 9 13 14 15 14 14 14 16 18 17 15 13 12 12 12 13 13 15 16
15 15 15 15 16 16 16 16 16 16 16 16 15 15 15 15 15 15 15 16 16 16 16 16 16 17 17 17 17 17 18 18 19 20 22 20 18 19 18 18 18 17 17 17 17 17 17 16 16 16 15 15 15 15 15 16 16 16 15 16 17 17 17 17 17 15 12 14 13 10 12 13 13 14 14 14 14 17 18 16 13 13 12 12 12 13 14 16
15 15 15 15 15 15 15 15 15 15 15 15 15 15 15 15 15 15 15 15 15 16 16 16 16 16 16 16 16 16 17 18 19 20 20 19 18 18 18 18 18 17 17 18 17 17 16 15 15 15 15 15 15 16 15 15 15 16 16 16 17 16 17 18 20 19 16 16 16 15 14 13 14 15 15 15 14 16 18 18 16 15 15 14 14 15 15 16
14 15 15 15 15 15 15 14 14 14 15 15 15 15 15 15 15 15 15 15 15 15 15 15 15 15 15 15 15 15 15 16 16 15 15 15 16 17 17 17 17 17 17 18 18 17 16 16 16 16 16 16 16 16 16 15 14 15 16 17 16 16 17 17 17 17 18 18 18 18 17 16 17 15 14 15 15 16 17 19 19 18 16 15 15 15 17 17
14 14 14 14 14 14 14 14 14 14 14 14 14 14 14 14 14 14 14 15 15 15 15 15 14 14 15 14 14 13 13 12 11 11 11 13 14 15 16 16 16 16 17 17 17 16 16 16 16 16 16 15 16 16 16 16 15 15 16 17 18 18 17 16 15 15 16 17 17 18 19 17 17 15 15 16 15 15 14 16 19 19 17 17 16 15 17 17
14 14 14 14 14 14 13 13 13 13 13 13 14 14 14 14 14 14 14 14 14 14 14 14 13 13 13 13 13 13 12 11 10 11 11 12 13 14 15 15 15 16 16 17 17 16 16 16 16 16 15 15 16 16 16 16 16 15 16 17 18 19 19 16 15 13 13 15 16 18 18 16 15 16 16 16 15 13 10 10 11 15 16 15 15 15 16 17
13 13 13 13 13 13 13 13 13 13 13 13 13 13 14 14 13 13 13 13 13 13 13 13 13 12 12 12 12 12 13 13 11 11 11 12 13 13 14 14 14 15 16 16 16 15 15 15 16 15 15 15 16 16 16 17 17 17 16 16 17 17 18 17 16 14 14 15 16 16 16 16 15 15 15 15 15 12 9 7 7 12 14 13 12 14 15 16
13 13 13 13 13 13 13 13 13 13 13 13 13 13 13 13 13 13 12 12 12 12 12 12 12 11 11 11 11 12 14 14 10 10 11 11 12 12 13 14 14 15 15 16 16 14 14 15 16 15 14 14 15 16 16 17 17 17 17 17 17 16 16 17 17 17 16 16 16 16 16 16 15 14 13 13 14 12 11 11 11 12 13 12 12 13 15 16
13 13 13 13 13 13 13 13 12 12 12 12 12 12 12 12 12 12 12 12 11 11 11 11 11 10 10 9 10 10 11 10 9 10 10 10 10 11 13 13 14 15 15 16 15 14 14 14 15 15 14 14 14 15 16 15 15 15 16 17 17 17 15 16 17 17 17 16 15 15 15 16 15 13 13 13 13 12 12 13 13 14 13 13 13 14 15 16
13 13 13 13 13 13 12 12 12 12 12 12 12 12 12 12 12 11 11 11 10 10 10 10 10 9 9 8 9 9 8 8 8 8 8 9 10 11 12 13 14 15 15 14 14 15 15 13 13 14 14 15 15 14 14 14 13 14 15 16 17 17 15 15 16 16 16 15 15 14 14 15 13 12 13 12 11 11 11 12 13 14 14 13 14 15 15 17
13 12 12 12 13 13 12 12 12 12 12 12 11 11 11 11 11 11 11 10 9 9 9 9 9 8 9 8 9 8 7 8 8 7 8 8 9 10 11 13 13 14 13 13 13 14 15 13 13 13 12 13 13 13 14 15 15 14 14 15 16 16 16 16 15 14 14 15 15 14 14 13 11 11 13 12 11 11 11 11 12 13 13 12 12 14 15 15
13 12 12 12 12 12 12 12 12 12 12 11 11 11 11 11 11 10 10 9 9 8 8 8 8 8 8 9 11 10 7 8 8 7 8 8 9 10 11 12 12 12 12 12 13 14 14 13 12 13 11 10 12 12 13 15 15 15 14 15 16 16 17 17 16 15 14 14 14 14 14 13 12 12 12 11 11 11 11 11 12 13 12 11 11 12 13 14
12 12 12 12 12 11 12 12 12 12 12 11 11 11 11 10 10 10 10 9 8 8 8 8 8 8 8 8 10 9 7 7 7 7 8 8 9 10 10 11 12 12 12 12 12 13 14 12 12 14 13 11 11 10 9 12 13 14 15 14 15 15 16 17 16 15 15 14 14 14 13 12 13 13 11 10 11 11 10 11 12 13 12 11 10 11 13 13
12 12 12 11 11 11 11 11 12 12 12 12 11 11 11 10 10 10 9 9 9 8 8 8 7 7 7 8 7 7 7 7 7 8 8 9 9 9 9 10 11 12 12 11 10 11 12 12 13 14 14 14 13 11 11 12 12 13 14 13 13 14 15 16 16 15 14 13 14 13 12 11 11 11 11 11 11 11 12 11 12 11 11 10 9 11 12 11
11 11 11 11 11 11 11 11 11 12 12 12 11 11 11 10 10 10 10 9 9 8 8 8 8 7 8 9 7 6 7 7 7 8 8 9 9 8 8 9 10 10 11 11 9 10 12 12 13 13 12 13 14 12 12 12 12 11 12 13 12 13 13 12 13 13 12 12 13 13 12 12 12 12 12 12 11 12 12 10 9 9 8 8 8 10 12 10
11 11 11 11 11 11 12 12 12 12 12 11 11 11 11 11 10 10 10 9 9 9 8 8 8 8 7 7 6 6 7 8 7 8 8 8 8 8 8 8 9 9 10 10 9 9 11 11 12 13 12 12 13 11 11 12 12 12 12 12 12 12 10 10 12 13 13 13 14 14 14 12 12 13 12 11 12 12 12 10 9 9 8 8 8 9 11 10
10 10 10 11 11 11 11 12 12 12 12 11 11 11 11 11 10 10 10 10 9 9 9 9 7 8 8 7 6 8 8 8 7 8 8 8 8 8 8 8 8 8 8 9 9 9 10 11 11 11 11 12 12 11 11 11 11 11 11 12 12 12 10 10 12 12 13 15 14 13 15 14 10 11 12 11 13 14 14 12 10 10 11 10 10 11 11 11
10 10 10 10 10 11 11 11 11 11 11 11 10 10 10 10 10 10 10 9 9 9 10 10 8 8 9 10 10 9 9 8 8 8 8 8 9 8 8 9 8 8 8 8 9 9 9 10 10 10 10 11 11 11 11 10 9 9 11 11 11 13 13 12 11 12 12 14 15 12 14 16 12 12 15 14 13 14 15 14 11 12 13 13 13 13 14 13
10 10 10 10 10 10 10 10 11 11 11 11 10 10 10 10 9 10 11 10 9 9 8 9 11 8 7 8 10 9 9 9 8 9 9 8 8 8 9 9 8 9 9 7 8 8 8 8 9 10 11 11 12 12 11 9 8 8 10 11 11 11 13 12 9 10 11 11 14 14 14 16 14 13 14 13 12 14 15 14 13 14 14 15 15 15 14 13
10 10 10 10 10 9 9 9 10 10 10 10 10 10 9 9 8 8 10 12 13 13 10 9 13 12 7 6 8 7 8 9 9 10 10 9 9 9 10 10 10 10 9 9 8 8 9 9 10 11 10 9 10 10 10 10 9 9 10 10 11 11 11 12 9 10 11 10 11 13 14 16 16 14 13 12 13 13 14 14 13 14 16 16 16 15 15 14
10 10 10 10 10 9 9 9 9 9 9 10 10 11 9 8 8 8 9 13 15 17 15 12 14 14 10 7 8 8 8 9 10 10 10 10 10 9 10 10 10 9 9 10 9 7 8 10 11 12 9 8 9 9 10 11 11 11 10 8 9 10 11 10 9 10 10 11 11 11 14 16 16 16 15 14 13 13 14 14 14 15 17 17 16 16 16 15
10 10 10 10 10 10 9 9 9 9 9 10 11 12 11 9 9 10 11 13 14 17 18 15 15 15 13 10 9 9 10 10 11 12 11 11 11 10 10 10 10 10 10 10 9 8 9 10 12 11 8 8 9 9 10 11 12 12 11 9 9 10 9 7 7 8 8 9 11 11 13 14 15 17 16 14 14 15 15 15 16 16 16 17 16 17 17 16
10 10 11 10 10 10 10 10 10 10 10 10 12 13 12 10 10 11 13 13 14 16 18 17 16 15 15 14 12 11 13 12 11 12 12 12 12 12 11 10 11 11 12 12 11 10 10 9 11 10 8 9 10 10 11 11 12 13 12 12 11 10 11 9 9 11 10 9 10 12 12 13 14 15 15 16 17 16 15 16 19 18 16 17 17 16 17 18
10 10 10 10 10 10 10 11 11 11 11 11 13 14 12 11 10 11 12 13 13 14 16 17 16 16 16 15 13 14 14 13 12 13 13 12 13 13 12 13 12 12 13 12 12 13 13 10 8 8 8 9 10 10 11 11 11 13 13 14 13 12 12 11 9 10 12 12 12 14 14 14 14 14 14 16 17 16 16 17 18 17 16 16 16 15 16 18
10 10 10 11 11 11 11 11 11 11 11 12 13 13 12 11 10 11 11 12 13 13 15 16 15 15 16 14 12 13 14 14 14 14 14 13 13 13 12 12 12 13 13 13 13 13 13 11 8 8 10 10 10 11 11 11 11 13 14 15 16 15 14 12 9 9 11 13 13 14 14 13 14 14 14 15 15 15 16 17 15 15 16 16 15 15 15 16
11 11 11 11 11 11 11 11 10 11 12 13 12 11 11 11 10 10 10 11 12 11 12 13 13 13 14 14 13 13 13 14 13 13 14 14 14 14 12 11 12 13 13 12 12 13 12 11 11 10 11 12 13 13 12 13 12 12 11 12 15 16 16 15 13 11 11 11 11 12 13 12 12 13 14 15 16 16 16 16 15 15 16 16 16 15 15 14
13 12 12 12 12 11 11 11 11 12 11 10 11 11 11 10 10 10 10 11 11 11 11 11 12 11 13 14 13 12 11 11 11 12 12 12 13 14 13 13 11 12 13 11 10 11 13 13 11 11 13 13 14 14 14 14 14 13 11 12 14 15 16 16 15 14 14 13 12 13 14 14 13 14 13 14 15 16 15 15 15 15 16 16 16 15 16 16
14 13 13 13 12 12 12 12 13 14 12 10 11 12 11 10 10 10 10 10 10 10 11 11 10 10 13 13 14 14 10 8 11 13 11 11 13 13 13 14 13 12 13 14 12 11 12 13 12 12 15 14 14 14 14 15 15 13 12 13 14 14 16 16 16 15 15 15 15 14 14 15 15 15 14 15 14 14 15 16 15 14 14 14 15 15 15 15
15 14 14 13 13 13 13 13 13 14 14 12 11 11 11 11 11 10 10 11 9 10 11 12 11 11 13 13 14 16 13 10 12 13 13 13 13 13 13 13 14 13 12 13 13 11 12 14 13 12 13 13 14 14 14 15 15 13 12 13 14 14 15 15 15 15 14 15 16 15 14 14 14 13 14 15 15 15 15 15 14 14 13 12 13 13 12 12
16 15 15 13 13 12 12 13 13 13 13 12 11 11 11 11 10 10 11 10 10 11 11 11 13 14 14 13 14 16 16 13 12 11 13 13 13 15 14 13 13 13 12 12 14 14 13 12 12 12 13 13 14 14 13 13 13 12 12 13 14 15 14 14 14 13 13 14 16 17 17 16 14 13 12 13 14 15 15 14 15 15 14 12 12 12 13 13
17 16 15 14 13 12 12 12 11 11 12 12 12 12 11 11 10 11 11 9 10 11 11 11 13 15 15 15 14 15 16 15 13 11 12 13 13 14 14 14 13 12 13 12 13 15 14 12 12 14 14 14 15 15 14 14 13 12 12 12 13 13 13 14 13 13 14 14 14 16 17 17 16 13 11 9 9 13 13 13 14 14 13 13 12 12 12 12
18 17 16 15 15 14 14 13 11 11 12 12 12 12 11 11 12 12 12 10 8 10 11 11 13 14 15 16 15 14 15 15 14 14 13 13 12 13 13 13 12 11 13 12 12 13 14 15 14 13 13 14 15 14 14 14 14 14 14 13 13 12 12 13 13 13 14 14 13 12 13 14 15 13 13 11 11 13 13 11 12 13 12 12 12 12 12 13
19 19 17 17 16 16 16 15 14 13 12 12 12 12 11 12 13 13 13 11 9 9 10 12 13 13 14 15 15 14 14 14 15 15 14 13 12 12 13 14 13 12 11 11 10 11 12 13 14 13 12 12 12 12 12 12 12 13 13 13 13 12 12 12 12 12 13 13 13 13 12 12 12 12 13 13 12 13 12 10 12 13 12 12 13 13 14 14
21 20 19 18 18 18 17 16 15 14 13 13 13 13 13 14 13 13 13 13 12 11 11 12 13 13 14 15 14 14 14 13 15 15 14 14 14 12 13 14 15 12 10 11 10 11 11 11 12 12 10 9 11 12 12 11 11 12 13 12 12 12 12 12 11 11 11 11 11 12 11 11 11 11 10 10 9 10 10 10 11 11 12 14 14 13 14 14
22 20 19 19 19 19 19 18 16 15 14 14 14 14 15 15 13 13 13 13 13 13 12 13 13 13 14 15 14 15 15 13 14 15 14 14 14 13 13 14 14 13 11 11 10 10 12 11 10 11 9 7 9 10 11 12 11 9 11 12 11 11 12 12 12 12 11 11 11 11 10 9 9 9 9 9 10 10 11 11 11 12 13 14 14 13 13 13
20 19 18 19 19 19 19 18 17 16 15 15 15 16 17 15 14 13 12 12 12 13 14 14 14 14 14 13 14 15 15 13 13 14 14 14 15 15 13 12 13 13 12 11 9 9 11 9 8 11 11 11 11 10 10 10 9 7 8 11 11 11 12 12 12 12 13 13 12 12 13 12 11 11 10 11 12 12 12 12 13 13 13 12 12 12 12 12
19 18 19 19 20 19 19 19 18 17 16 16 16 17 16 16 15 15 13 12 11 11 13 13 13 14 14 13 14 14 13 13 14 14 14 14 14 14 14 12 12 12 11 10 10 8 9 10 8 9 10 11 12 11 11 11 11 10 9 8 8 10 12 12 11 11 12 12 11 12 14 14 13 12 12 14 14 14 13 12 12 12 11 11 11 11 11 11
19 19 19 21 20 19 18 18 18 18 17 17 18 18 17 17 16 16 14 13 13 12 13 13 12 13 13 13 15 15 14 14 15 15 14 14 12 11 12 11 12 13 12 11 11 9 9 11 11 10 11 11 10 10 11 12 13 13 12 9 9 9 10 11 11 11 11 11 11 12 14 14 13 12 13 15 15 14 14 13 12 12 11 10 10 10 10 10
18 18 19 20 19 17 17 18 18 19 18 19 19 18 17 17 18 18 16 14 14 15 14 14 14 13 14 14 14 15 16 16 15 15 14 14 12 11 11 11 11 13 13 13 13 12 11 12 12 12 13 12 11 10 10 11 12 14 14 13 12 11 11 11 11 10 11 11 11 12 13 12 11 11 12 14 15 15 15 14 13 13 13 11 10 10 10 10
17 16 16 15 16 16 16 17 19 19 19 20 19 18 17 17 17 18 17 15 15 16 16 16 16 15 15 17 16 15 15 16 15 15 14 13 12 13 14 14 13 12 11 12 13 12 12 12 12 12 13 13 12 11 11 11 11 11 12 12 12 13 13 13 13 12 12 12 11 12 12 9 8 9 9 10 13 15 15 14 14 14 14 12 10 10 10 10
16 16 14 13 14 15 16 17 19 20 20 20 20 20 19 18 17 17 15 15 16 17 17 17 16 15 14 16 16 16 16 16 16 15 14 14 13 14 15 15 15 13 11 11 12 12 13 13 14 14 14 14 14 13 13 13 12 11 11 12 12 12 11 11 12 13 13 13 12 12 12 10 10 10 9 8 10 12 13 14 14 13 13 12 11 10 11 10
15 15 13 13 14 15 16 17 18 19 20 20 20 20 19 17 18 18 16 15 15 17 18 18 18 17 15 15 15 16 16 16 17 16 15 14 12 12 13 14 14 13 12 11 11 11 13 13 15 15 15 16 16 16 16 15 14 14 14 14 14 14 13 12 12 12 13 13 13 13 12 10 10 10 10 10 11 12 13 13 13 13 13 13 12 11 11 11
15 14 13 13 14 16 16 17 18 18 20 20 21 22 21 19 19 19 19 18 16 15 16 17 17 17 17 16 16 16 16 16 17 17 16 14 10 10 12 13 13 13 14 15 14 13 14 14 16 17 17 17 19 19 20 19 17 17 17 16 16 17 17 16 15 15 15 15 15 14 13 11 11 11 11 12 12 13 15 14 14 13 13 14 14 13 13 13
15 16 15 14 15 16 17 16 17 17 19 20 21 21 21 20 19 19 19 19 17 16 16 17 16 16 17 17 17 17 16 16 17 18 18 15 11 11 12 13 14 14 13 15 15 14 14 15 16 17 17 17 17 16 16 16 16 16 16 15 16 18 18 19 18 17 17 18 17 17 16 13 12 13 13 13 13 12 13 14 14 14 15 16 16 16 16 15
15 15 16 16 15 16 17 17 17 17 17 18 20 21 21 21 19 19 19 18 18 17 16 17 16 16 16 17 17 18 18 17 17 17 18 16 14 15 16 15 16 15 14 15 15 16 16 16 16 17 16 16 15 13 12 11 13 15 15 15 16 16 16 17 18 18 18 18 18 18 17 14 13 13 13 14 15 14 14 15 15 16 17 18 17 16 17 16
14 13 14 15 16 16 17 18 18 18 17 17 17 18 20 20 19 19 19 19 20 19 18 17 17 16 16 17 17 17 18 19 19 18 19 18 16 17 18 18 17 15 14 16 17 18 18 18 19 20 20 20 19 18 16 15 16 18 18 18 18 17 17 17 18 18 18 18 19 19 18 17 16 14 13 13 14 15 15 15 16 17 18 18 17 17 17 17
14 13 13 13 14 14 15 16 17 17 17 17 18 18 19 20 20 18 17 18 20 20 19 20 20 18 18 18 18 18 18 19 19 19 20 20 18 16 16 17 17 16 16 17 19 19 19 20 22 23 24 25 24 25 24 22 22 23 22 23 22 22 22 20 20 20 20 20 21 20 19 19 19 18 16 15 14 14 15 16 16 16 16 17 18 19 19 18
13 13 12 12 14 14 13 14 14 14 15 15 16 17 18 19 19 18 17 16 17 18 18 19 21 21 20 20 19 19 20 20 20 20 19 20 19 17 17 17 17 16 17 18 19 19 20 21 22 23 25 26 26 26 26 25 25 25 25 26 26 26 25 24 24 25 24 24 25 24 23 23 24 23 22 20 19 18 19 18 18 18 18 18 19 20 20 19
12 13 13 13 15 15 14 14 14 14 14 13 14 15 17 17 18 19 18 17 17 17 17 18 19 20 20 21 21 20 19 20 20 19 18 18 19 18 18 18 17 16 17 18 18 19 19 20 21 23 25 26 26 26 25 25 26 26 27 28 27 27 28 27 27 28 28 28 28 28 27 27 26 26 25 25 24 23 23 21 21 21 20 20 20 21 21 21
12 13 13 14 15 15 15 16 16 15 14 14 14 15 16 16 17 18 18 18 17 17 18 18 18 18 19 20 20 19 17 17 18 18 18 18 19 19 19 19 18 18 18 17 16 17 18 19 19 21 23 25 25 25 25 26 27 28 28 28 28 28 29 29 28 28 28 29 28 27 27 27 26 25 25 25 25 25 25 24 24 24 24 24 24 24 24 24
11 12 12 13 13 14 14 15 15 16 15 13 13 14 14 15 15 15 16 16 16 16 16 18 18 18 19 18 17 16 16 17 18 19 19 20 20 20 20 20 20 20 19 19 18 17 18 19 20 20 22 23 23 23 25 25 26 28 29 28 28 28 27 27 27 26 27 27 27 26 27 26 24 23 24 24 23 23 24 25 25 24 24 25 25 27 27 26
10 11 11 12 12 13 13 13 13 14 14 14 14 14 14 14 14 14 14 16 16 16 15 16 18 18 18 17 17 17 18 19 20 21 21 22 22 22 22 22 22 21 20 19 19 19 19 20 20 20 22 23 22 22 23 23 24 25 24 23 24 25 25 24 24 25 24 23 24 25 25 24 23 23 23 23 22 22 23 24 25 24 24 24 23 24 26 27
Wind_Direction
273 272 271 270 270 269 269 270 270 271 271 271 273 274 275 275 276 276 277 276 275 275 274 273 272 272 271 271 271 270 270 267 264 261 255 253 251 251 254 249 246 247 247 246 245 246 244 244 247 247 248 250 251 251 251 249 248 250 252 252 254 254 253 254 253 259 262 249 250 262 260 261 268 275 268 260 255 249 246 239 233 236 240 240 231 217 214 216
273 272 271 270 270 269 269 269 270 271 271 271 272 273 274 275 276 277 277 277 276 275 274 273 273 271 271 271 271 271 270 267 264 260 255 251 249 248 248 247 246 245 242 241 241 242 241 241 244 244 246 249 249 249 250 247 244 247 251 251 252 253 252 253 253 257 261 254 260 274 269 262 265 272 267 261 257 247 243 239 231 230 231 226 222 218 216 217
273 273 271 271 270 270 269 269 270 271 271 271 271 273 274 275 276 277 277 277 276 275 274 273 272 271 271 270 271 271 269 268 264 259 254 247 243 244 244 245 244 241 238 236 237 239 239 241 243 243 245 248 248 247 246 244 242 244 249 252 251 251 253 256 259 261 264 261 261 266 268 266 269 270 264 262 259 248 243 241 234 228 226 223 223 222 219 222
274 273 272 271 270 269 269 270 270 271 271 271 271 272 274 275 276 277 277 277 276 275 274 273 272 271 271 271 271 271 269 268 262 255 250 242 240 242 242 242 240 237 235 234 237 238 238 241 244 243 244 247 247 246 244 241 243 245 246 251 251 251 257 263 266 266 262 258 257 262 267 269 270 267 262 262 259 251 244 242 238 230 224 221 221 222 223 226
273 272 271 270 269 269 269 270 270 271 272 272 272 272 274 276 276 277 277 276 276 275 274 272 271 271 270 271 269 267 266 264 256 249 247 242 241 241 240 238 235 233 232 233 238 239 238 241 244 243 243 246 247 245 243 241 243 248 247 250 252 255 263 267 267 266 261 258 258 261 263 265 266 263 261 259 255 251 249 249 240 226 221 220 220 224 225 227
273 272 271 270 269 268 268 269 270 270 272 273 273 273 274 275 276 277 276 277 277 275 273 271 270 270 270 269 265 259 255 258 257 249 249 246 243 241 237 234 232 229 228 232 237 237 236 238 241 241 240 244 246 244 243 241 243 249 251 251 253 258 262 263 265 266 261 259 259 257 258 261 262 261 257 252 250 248 253 263 234 214 218 220 220 223 224 225
273 272 271 270 269 268 268 269 270 270 272 272 274 275 274 274 275 276 277 277 277 275 273 271 269 268 269 267 260 252 249 258 260 251 251 250 244 240 234 230 227 225 227 231 233 233 233 233 235 238 239 242 246 247 244 243 245 247 251 253 255 258 258 257 262 263 259 258 258 256 255 256 258 259 253 246 246 240 237 238 208 206 219 220 219 221 223 224
274 272 271 270 268 268 268 268 269 270 271 272 274 274 274 273 273 275 276 277 277 275 272 269 267 265 267 264 258 254 251 253 253 250 252 247 241 235 228 225 223 221 224 230 231 231 231 232 234 236 238 242 245 248 246 246 246 245 250 256 257 259 258 257 258 258 257 257 255 253 254 254 253 255 251 247 242 231 228 221 208 216 222 220 221 224 226 226
276 274 272 270 268 268 267 268 269 269 271 272 273 274 274 273 272 273 275 276 275 274 271 266 263 262 263 259 259 262 255 250 251 252 247 239 234 226 221 219 218 218 222 229 231 229 230 231 234 235 239 246 252 253 248 246 245 244 252 255 253 255 255 257 257 256 255 253 251 249 251 251 248 250 251 246 236 227 229 223 218 225 224 223 227 230 230 228
277 276 274 271 269 267 267 268 268 269 270 271 273 273 272 272 271 271 272 274 273 272 269 262 260 259 256 253 256 262 256 252 253 247 237 230 225 218 217 215 214 218 223 228 229 228 230 232 236 240 245 249 255 259 249 242 245 250 257 254 250 253 254 256 256 252 248 246 246 245 249 249 241 245 248 237 228 230 231 224 227 230 229 230 231 233 232 230
277 276 275 272 269 267 266 266 267 268 269 270 272 272 270 270 269 269 269 271 270 269 266 259 257 253 250 248 250 258 260 253 245 235 229 222 215 213 215 215 214 217 224 228 229 229 230 237 244 242 244 248 251 258 249 243 247 252 258 255 252 254 255 256 254 248 245 245 241 241 248 245 234 242 244 228 226 234 225 220 231 234 234 235 229 231 232 230
276 275 274 272 269 267 265 264 265 266 268 269 270 270 268 267 267 267 267 267 266 265 261 257 252 249 251 250 247 253 262 251 239 231 223 216 214 215 216 218 216 216 223 227 230 234 233 243 248 236 240 253 252 258 252 243 246 252 254 254 255 255 253 251 248 243 245 244 234 235 246 240 235 244 237 221 229 235 221 223 236 235 234 233 227 230 230 227
275 274 272 271 269 268 266 264 263 264 266 267 268 268 267 266 266 266 265 264 262 260 257 254 250 249 254 257 249 246 252 245 233 226 220 215 216 220 223 223 218 222 233 236 235 236 236 244 245 237 245 251 248 262 262 243 245 252 250 253 256 255 252 245 240 238 241 241 227 228 241 238 237 237 224 217 228 233 222 224 233 231 231 230 229 232 225 219
274 273 271 269 268 267 267 265 263 263 263 265 266 266 266 265 265 264 264 262 259 256 253 250 250 247 246 254 251 239 244 243 228 223 218 215 217 223 226 223 222 227 234 240 243 236 233 241 241 242 248 244 249 267 262 245 248 252 248 251 252 255 254 237 229 230 234 232 217 222 239 240 234 220 216 225 229 236 235 230 232 230 226 225 225 225 217 213
274 273 271 269 268 267 266 265 263 263 262 263 263 265 265 265 264 262 260 260 257 252 249 247 244 244 251 257 250 235 239 234 223 219 212 214 219 221 220 219 224 228 227 234 245 238 234 238 236 239 243 242 250 261 253 243 245 247 246 246 244 255 253 222 215 223 227 223 214 229 242 241 237 220 219 230 231 238 241 234 225 216 210 219 230 224 216 213
275 273 271 269 268 267 265 264 263 263 263 262 262 264 264 263 262 260 258 258 256 250 243 242 242 244 259 262 239 228 232 228 223 214 208 214 216 214 215 216 220 224 226 232 242 240 234 236 235 240 246 245 244 246 249 246 240 239 245 246 241 246 238 213 220 225 226 225 222 234 240 241 239 220 215 229 235 236 239 234 213 207 214 228 243 231 219 216
278 275 272 270 268 267 266 264 263 263 262 262 264 266 264 262 260 258 256 253 252 247 237 241 248 246 253 261 242 232 231 226 219 209 209 215 215 215 214 216 220 220 226 232 237 239 234 235 237 241 246 244 240 242 246 243 239 236 239 245 242 239 232 223 226 225 229 229 227 233 234 238 229 210 219 236 243 240 238 236 218 219 231 233 237 231 226 226
280 277 274 272 269 268 266 264 263 262 261 262 264 265 267 266 260 256 251 248 247 241 239 242 244 251 256 252 243 235 226 220 214 212 213 213 219 224 218 218 220 218 226 234 234 236 233 232 235 240 241 237 235 235 236 241 253 255 244 239 239 239 236 232 227 225 229 227 230 236 231 233 223 220 236 240 244 244 240 238 221 222 232 233 237 235 234 233
282 278 275 273 271 271 268 265 263 261 261 261 260 262 267 267 260 256 247 243 239 229 237 236 224 243 267 242 233 228 218 216 216 217 217 214 219 225 220 222 225 224 231 233 229 231 231 232 236 238 237 235 231 228 237 256 271 275 263 243 240 246 237 234 234 224 223 223 231 238 233 231 228 230 236 235 244 246 242 239 223 221 228 232 239 238 233 231
283 279 276 273 271 271 269 267 263 260 259 258 257 257 262 265 258 256 245 239 238 235 249 247 222 234 262 239 223 217 212 220 223 221 220 219 221 224 223 227 232 231 235 235 232 234 235 240 243 241 240 239 237 238 249 262 261 265 273 253 240 244 235 234 237 221 226 237 235 236 236 236 236 236 234 234 243 239 238 245 236 230 231 234 239 236 233 233
286 279 275 274 271 270 268 266 262 260 259 256 255 251 261 278 267 262 256 245 242 239 247 252 230 233 250 241 223 220 223 228 228 226 223 220 223 227 223 226 232 230 233 237 235 237 241 246 246 243 246 244 245 253 254 253 253 255 268 266 244 241 237 234 233 219 226 244 247 247 244 241 239 238 238 239 242 238 238 248 248 240 238 242 244 235 234 237
291 281 275 272 269 268 265 262 260 259 258 254 251 249 261 280 268 264 268 258 251 241 240 245 240 239 242 237 234 233 231 230 230 229 223 221 226 228 220 222 233 233 233 236 236 241 241 245 247 241 241 244 245 255 255 252 252 249 254 259 251 246 238 222 218 222 228 241 250 251 246 247 243 237 241 243 242 245 245 247 251 248 244 247 248 235 232 238
294 284 276 271 267 266 261 260 260 260 258 252 251 255 264 274 269 270 268 259 257 246 237 239 241 241 237 236 241 240 236 234 232 227 219 222 228 229 227 229 236 239 237 232 233 244 243 243 249 244 242 252 254 255 256 254 247 244 247 249 247 244 240 232 229 236 246 251 251 253 255 261 254 242 243 246 243 244 247 248 250 252 247 245 249 238 230 235
299 288 279 273 270 267 263 262 262 262 259 254 256 259 264 270 271 277 269 256 256 249 239 235 237 240 236 236 239 236 237 237 237 228 217 224 230 227 233 238 242 247 243 234 231 243 252 253 247 239 244 256 260 255 249 248 245 242 242 245 246 246 247 248 240 238 251 258 255 260 264 261 255 246 244 247 242 238 245 247 247 249 248 243 244 239 230 232
303 293 282 275 270 267 265 264 261 260 257 257 261 258 261 268 269 277 270 256 255 248 238 233 234 238 232 231 234 232 234 239 246 235 217 225 232 224 234 240 242 246 242 241 241 242 250 253 242 238 247 251 254 251 243 241 246 247 242 242 246 252 257 253 243 242 253 257 251 252 257 253 249 245 242 247 241 234 242 245 243 245 246 243 239 238 235 232
300 296 287 276 270 267 264 262 260 260 259 260 263 261 264 268 271 275 264 257 258 244 230 228 229 233 226 223 227 230 236 242 245 231 218 231 233 229 241 241 239 245 245 251 249 239 243 248 248 252 255 253 251 250 247 243 247 251 249 247 247 250 255 252 249 251 252 255 248 241 249 254 251 247 247 251 241 231 237 241 242 245 244 243 240 238 238 231
295 293 288 276 268 265 262 262 265 264 265 266 263 264 269 268 271 272 260 260 258 235 223 223 225 230 225 222 222 225 237 239 227 216 219 232 229 231 244 240 238 244 244 252 252 244 248 248 249 257 258 254 251 250 247 243 245 250 254 257 252 248 250 251 252 251 251 257 253 241 247 258 259 255 258 259 238 223 231 237 241 244 238 237 238 238 240 235
291 290 286 275 265 263 262 265 267 261 263 270 266 265 270 269 269 264 256 260 251 228 225 225 227 233 226 222 221 221 231 229 218 219 225 232 228 230 239 239 246 253 244 244 249 252 252 244 244 255 256 253 251 250 246 241 241 247 253 256 255 252 251 250 250 251 253 258 256 247 248 256 259 257 256 255 237 223 233 237 236 239 234 232 235 236 238 239
290 288 286 276 263 263 262 263 264 259 262 270 269 267 268 268 264 255 253 256 244 233 235 230 230 232 223 222 222 224 231 231 228 232 231 232 232 231 239 244 251 262 253 240 245 254 253 247 250 256 253 251 249 246 246 247 244 247 257 261 258 257 255 252 252 253 254 256 257 255 253 254 258 257 252 248 238 232 237 236 231 233 233 234 237 238 241 244
288 286 285 275 261 262 261 258 259 259 260 264 266 266 264 261 256 251 249 250 245 237 233 232 231 227 223 226 226 225 231 233 233 234 229 233 235 233 243 250 249 259 257 243 247 253 250 248 255 259 253 250 249 247 250 255 249 244 252 258 256 253 253 253 255 256 255 254 255 255 253 253 257 258 256 252 241 231 234 237 231 228 229 234 239 240 245 248
285 283 281 270 258 259 258 256 260 260 258 261 264 263 258 253 250 249 247 251 255 238 226 233 232 225 224 228 228 224 228 232 229 229 231 235 235 232 238 244 244 253 254 249 250 250 249 247 249 255 254 251 253 254 256 254 247 246 251 255 256 252 250 254 253 251 253 254 255 256 253 250 253 253 251 256 241 224 232 238 227 221 225 230 233 237 243 247
282 280 277 266 258 255 253 257 267 266 261 262 261 256 252 251 247 246 246 254 260 236 227 236 231 224 223 227 228 223 226 232 228 229 235 233 231 230 234 237 237 245 249 249 247 246 252 255 250 249 246 246 251 252 252 250 248 252 253 252 254 251 247 250 250 248 251 255 256 260 260 251 249 248 245 249 242 227 232 235 221 218 222 226 233 241 246 250
280 277 273 264 258 253 251 256 263 264 263 261 256 250 247 250 247 245 246 248 248 238 239 241 230 225 225 226 227 223 226 233 228 229 232 230 231 230 232 235 232 238 248 251 251 248 251 255 254 250 239 235 243 245 245 245 243 246 248 246 246 246 246 247 249 249 253 256 254 253 260 257 252 251 248 245 237 225 225 225 221 224 227 233 242 246 248 251
280 275 269 263 259 255 252 254 257 259 260 255 250 246 243 247 250 252 251 248 246 245 249 245 232 229 230 229 227 222 228 234 228 228 227 227 233 232 231 235 233 237 246 245 248 249 248 251 249 242 229 221 234 242 244 251 252 244 243 245 242 241 244 247 249 253 257 262 258 248 250 257 255 254 249 233 220 217 220 222 223 230 236 242 247 249 250 255
278 271 265 261 258 256 252 250 251 253 254 251 247 244 243 246 250 250 252 252 249 246 248 246 236 233 233 231 229 225 229 231 226 229 232 229 233 235 233 235 235 237 241 240 242 243 246 251 240 230 227 227 238 245 246 255 261 246 237 242 242 239 242 246 252 260 264 266 262 249 246 255 253 249 243 225 219 227 229 228 233 240 242 243 246 250 254 261
275 267 262 259 256 254 250 246 245 246 247 247 245 245 244 246 247 247 254 261 256 246 246 243 237 238 237 232 232 228 225 227 227 230 235 233 234 236 233 232 231 230 233 240 247 245 245 247 230 222 232 240 243 248 246 246 253 250 242 245 247 245 244 248 255 257 257 258 257 250 250 256 253 248 242 230 233 239 234 233 240 240 237 239 246 250 255 262
271 265 262 259 255 251 246 241 240 240 244 245 246 247 247 246 247 248 256 263 259 249 246 243 237 238 238 232 233 229 220 224 230 234 237 235 233 233 227 222 222 225 234 244 246 245 243 244 240 233 239 240 238 247 253 250 252 255 252 248 248 248 245 248 254 254 251 253 255 251 252 256 255 253 244 236 240 240 232 234 237 229 228 237 243 247 254 261
271 266 263 260 254 246 241 238 237 239 243 245 247 249 249 250 249 250 256 257 252 248 245 243 238 236 238 235 233 230 226 228 232 234 236 231 230 232 225 219 220 228 241 246 241 242 243 246 251 249 249 246 235 239 251 252 250 251 253 255 253 252 250 247 249 254 255 256 258 258 259 259 259 261 249 236 237 236 230 233 231 223 227 236 241 246 252 257
270 266 264 259 248 238 237 237 238 240 242 245 247 247 248 249 248 250 255 255 250 249 247 245 242 238 239 240 237 232 232 235 234 233 233 229 230 236 232 226 227 232 241 242 241 246 246 247 249 248 254 257 243 236 248 254 251 246 247 252 253 253 254 252 250 251 256 259 262 265 266 263 264 267 253 238 237 233 231 234 232 228 232 236 241 248 251 255
268 266 265 255 237 233 238 239 238 240 241 243 245 246 247 249 249 251 252 250 250 249 248 248 248 244 242 241 240 237 235 237 235 234 235 233 233 237 235 233 233 233 237 240 243 248 246 246 249 249 256 259 246 240 250 260 261 254 247 248 253 254 254 254 253 252 256 261 263 266 266 266 269 266 254 248 245 236 234 240 238 234 233 233 238 247 252 255
266 265 260 246 234 236 239 240 240 241 243 243 245 246 248 250 253 254 251 249 252 251 248 249 251 252 248 242 239 238 237 237 237 237 239 238 237 238 234 230 230 232 234 238 243 248 246 246 250 252 253 254 250 247 252 259 261 259 256 255 257 259 258 256 255 257 261 263 265 268 269 267 268 261 252 258 257 244 240 243 241 235 230 229 236 248 252 252
262 260 254 241 239 239 240 244 243 242 243 244 244 245 246 249 251 250 248 249 251 249 247 248 248 250 249 245 241 240 238 238 238 238 241 242 241 237 230 226 228 233 239 245 248 251 250 250 254 255 253 255 258 257 259 264 262 259 261 262 261 261 261 259 258 260 263 265 266 269 270 266 266 265 258 260 263 258 251 246 241 234 227 230 239 246 250 252
255 256 252 243 241 240 243 248 246 244 245 245 246 245 245 248 249 248 249 250 251 248 245 246 246 246 246 245 244 243 240 239 240 240 242 243 238 228 227 230 233 237 243 249 252 254 254 252 254 258 259 261 263 260 260 262 261 258 259 260 260 261 262 262 263 263 264 265 265 266 265 262 267 273 272 269 267 261 254 246 239 234 232 240 245 245 250 256
260 259 254 246 243 243 245 248 248 248 247 245 246 246 246 248 248 247 248 249 249 248 246 247 247 247 247 247 246 245 242 241 241 241 242 242 235 230 232 237 243 247 248 249 251 255 256 253 253 258 262 263 261 258 255 256 257 258 258 259 262 265 265 264 264 263 263 263 264 265 265 265 268 271 273 274 270 261 252 243 236 235 241 248 249 248 252 257
264 258 253 246 243 245 247 248 249 251 250 249 249 248 247 246 244 245 247 248 249 248 248 248 247 248 248 247 247 245 244 245 245 243 243 241 238 239 242 245 249 252 253 253 254 256 257 255 255 256 258 259 258 258 260 262 263 262 263 264 266 270 272 271 266 261 260 263 264 263 264 266 267 268 273 277 272 262 255 247 242 242 246 250 252 251 252 255
259 255 254 248 244 247 249 248 249 252 253 253 251 249 247 244 243 244 246 248 248 247 248 247 247 248 247 246 249 247 245 246 247 245 244 244 245 245 245 247 250 251 255 258 257 256 256 256 257 257 257 259 261 263 268 272 270 266 266 267 266 266 270 271 266 261 263 267 265 262 266 271 269 267 275 282 277 267 260 256 254 251 249 250 252 253 254 256
255 255 259 254 247 249 250 248 248 251 252 250 248 247 247 245 244 243 242 246 248 248 249 248 247 248 246 246 249 250 248 248 248 247 246 247 249 246 245 250 251 250 255 258 255 254 256 256 256 257 259 260 263 266 268 269 269 267 267 268 267 266 268 266 263 264 268 269 265 265 270 273 270 270 274 277 277 274 268 263 261 258 253 250 251 253 255 255
258 256 261 259 251 249 254 254 252 254 255 252 249 248 248 246 243 241 240 246 251 250 248 248 248 247 247 248 248 250 251 250 249 249 248 247 247 246 247 254 254 251 254 257 254 252 255 257 258 259 261 262 263 265 266 266 265 266 266 267 267 268 268 265 263 265 266 265 265 268 270 269 268 271 273 272 272 272 271 266 263 261 259 255 253 252 252 252
264 258 264 265 253 249 257 260 257 258 257 252 251 250 249 247 245 244 243 245 250 252 250 250 249 249 250 249 249 250 251 250 250 250 250 250 248 249 252 254 253 251 253 255 254 252 255 259 261 262 264 264 264 265 266 267 266 266 267 267 266 267 266 264 265 266 266 265 267 268 269 268 268 270 271 271 271 269 269 267 263 261 260 259 256 253 253 254
270 263 266 265 255 252 259 259 255 256 255 252 251 250 250 250 248 246 245 246 249 253 253 253 254 255 255 252 249 249 249 249 251 251 252 253 251 251 254 255 257 258 257 258 256 253 255 260 264 266 267 267 266 266 266 267 267 267 267 267 268 269 267 266 266 267 267 267 268 269 269 269 270 271 271 270 269 267 266 265 263 262 260 259 257 255 256 257
277 269 265 260 254 255 259 257 253 253 252 252 252 251 252 253 250 247 246 245 249 253 253 256 259 260 258 253 249 250 250 250 252 253 255 255 253 253 255 255 259 263 262 260 258 254 256 261 266 268 267 266 268 268 268 269 270 269 268 269 269 269 268 268 267 266 267 269 269 269 268 268 270 272 271 270 269 268 268 267 266 266 265 262 258 256 256 256
287 276 267 259 255 256 258 257 254 252 250 251 253 255 255 253 252 252 248 245 251 254 253 259 262 259 256 254 252 255 257 256 256 257 257 256 255 256 256 256 259 262 261 260 259 257 258 261 265 266 266 267 269 270 273 274 271 267 268 271 271 270 269 270 269 268 269 271 270 268 268 269 271 271 270 271 270 269 269 269 268 268 267 266 264 261 258 256